sat.trackr.live / text

‹ back to catalog

STARLINK-33760

NORAD 63764 · 2025-089P

PAYLOAD ACTIVE UNKNOWN

§ Identity

Operator
Country
US
Launch date
2025-04-29
Launch site
AFETR
Launch vehicle
Mass (kg)
RCS (m²)

Purposes: comms

External: N2YO · Heavens-Above · Gunter

§ Orbital elements

Epoch: 2026-05-24T17:13:22.913184Z

Period
94.27 min
Inclination
43.0032°
Eccentricity
0.0001522
Mean motion
15.27591986 rev/d
Perigee alt
482.0 km
Apogee alt
484.1 km
Semi-major
6,861.2 km
B*
4.8281e-4
RAAN
335.9911°
Arg perigee
253.2170°
Mean anomaly
106.8514°
Rev number
6,058

§ Raw data

STARLINK-337601 63764U 25089P   26144.71762631  .00013052  00000+0  48281-3 0  99962 63764  43.0032 335.9911 0001522 253.2170 106.8514 15.27591986 60588

JSON: /api/v1/satellites/63764 · /tle

For live sub-satellite position, see the globe view (requires WebGL).

§ Visibility from observer

Set your observer location to see the next 7 days of passes ≥ 10°. The values pass through the URL so the page stays shareable.

No JS? Fill the form by hand. The geolocation button needs JavaScript.